Fort Yukon, AK

6:14 AM AKDT on September 19, 2017 (GMT -0800)
Fort Yukon

Weather History for PFYU - November, 2012

Change the Weather History Date:

Tuesday, November 13, 2012

  Actual Average Record
Temperature  
Mean Temperature -20 °F -  
Max Temperature -14 °F 1 °F 19 °F (2000)
Min Temperature -29 °F -7 °F -32 °F (2006)
Degree Days  
Heating Degree Days 86    
Moisture  
Dew Point -25 °F    
Average Humidity 67    
Maximum Humidity 92    
Minimum Humidity 58    
Precipitation  
Precipitation 0.00 in - - ()
Sea Level Pressure  
Sea Level Pressure 30.09 in    
Wind  
Wind Speed 0 mph (North)    
Max Wind Speed 0 mph    
Max Gust Speed -    
Visibility 10 miles    
Events      
Averages and records for this station are not official NWS values.
T = Trace of Precipitation, MM = Missing Value Source: NWS Daily Summary

Daily Weather History Graph

Daily Weather History Graph

Search for Another Location

Airport or City:

Trip Planner

Search our weather history database for the weather conditions in past years. The results will help you decide how hot, cold, wet, or windy it might be!

Date:

Astronomy

Nov. 13, 2012 Rise Set
Actual Time 9:29 AM AKST 3:20 PM AKST
Civil Twilight 8:20 AM AKST 4:29 PM AKST
Nautical Twilight 7:13 AM AKST 5:36 PM AKST
Astronomical Twilight 6:11 AM AKST 6:38 PM AKST
Moon 9:35 AM AKST (11/13) 2:59 PM AKST (11/13)
Length of Visible Light 8h 08m
Length of Day
5h 50m
Waning Crescent, 0% of the Moon is Illuminated
Nov 13
Waning Crescent
Nov 13
New
Nov 20
First Quarter
Nov 28
Full
Dec 6
Last Quarter

Hourly Weather History & Observations

Time (AKST) Temp. Dew Point Humidity Pressure Visibility Wind Dir Wind Speed Gust Speed Precip Events Conditions
12:16 AM -18.4 °F - N/A% 30.11 in 10.0 mi Calm Calm - N/A   Overcast
12:36 AM -18.4 °F - N/A% 30.11 in 10.0 mi Calm Calm - N/A   Overcast
12:56 AM -18.4 °F -29.2 °F 58% 30.12 in 10.0 mi Calm Calm - N/A   Overcast
1:16 AM -18.4 °F -27.4 °F 63% 30.12 in 10.0 mi Calm Calm - N/A   Overcast
1:36 AM -18.4 °F -25.6 °F 70% 30.12 in 10.0 mi Calm Calm - N/A   Overcast
1:56 AM -16.6 °F -25.6 °F 64% 30.12 in 10.0 mi Calm Calm - N/A   Overcast
2:16 AM -16.6 °F -25.6 °F 64% 30.14 in 10.0 mi Calm Calm - N/A   Overcast
2:36 AM -16.6 °F -23.8 °F 70% 30.13 in 10.0 mi Calm Calm - N/A   Overcast
2:56 AM -16.6 °F -25.6 °F 64% 30.14 in 7.0 mi Calm Calm - N/A   Overcast
3:16 AM -16.6 °F -23.8 °F 70% 30.13 in 9.0 mi Calm Calm - N/A   Overcast
3:36 AM -16.6 °F -27.4 °F 58% 30.13 in 10.0 mi Calm Calm - N/A   Overcast
3:56 AM -16.6 °F -18.4 °F 92% 30.13 in 10.0 mi Calm Calm - N/A   Overcast
4:16 AM -14.8 °F - N/A% 30.14 in 10.0 mi Calm Calm - N/A   Overcast
4:36 AM -14.8 °F - N/A% 30.13 in 10.0 mi Calm Calm - N/A   Overcast
4:56 AM - - N/A% 30.13 in 10.0 mi Calm Calm - N/A   Overcast
5:16 AM - - N/A% 30.14 in 10.0 mi Calm Calm - N/A   Overcast
5:36 AM - - N/A% 30.14 in 10.0 mi Calm Calm - N/A   Overcast
5:56 AM - - N/A% 30.15 in 10.0 mi Calm Calm - N/A   Overcast
6:16 AM - - N/A% 30.15 in 10.0 mi Calm Calm - N/A   Scattered Clouds
6:36 AM - - N/A% 30.15 in 9.0 mi Calm Calm - N/A   Mostly Cloudy
6:56 AM - - N/A% 30.16 in 10.0 mi Calm Calm - N/A   Scattered Clouds
7:16 AM - - N/A% 30.16 in 4.0 mi Calm Calm - N/A   Scattered Clouds
7:36 AM - - N/A% 30.17 in 10.0 mi Calm Calm - N/A   Scattered Clouds
7:56 AM - - N/A% 30.16 in 8.0 mi Calm Calm - N/A   Scattered Clouds
8:16 AM - - N/A% 30.16 in 10.0 mi Calm Calm - N/A   Partly Cloudy
8:36 AM - - N/A% 30.16 in 9.0 mi Calm Calm - N/A   Partly Cloudy
8:56 AM - - N/A% 30.18 in 10.0 mi Calm Calm - N/A   Partly Cloudy
9:16 AM - - N/A% 30.19 in 10.0 mi Calm Calm - N/A   Partly Cloudy
9:36 AM - - N/A% 30.20 in 10.0 mi Calm Calm - N/A   Partly Cloudy
9:56 AM - - N/A% 30.20 in 10.0 mi Calm Calm - N/A   Partly Cloudy
10:16 AM - - N/A% 30.20 in 10.0 mi Calm Calm - N/A   Partly Cloudy
10:36 AM - - N/A% 30.22 in 10.0 mi Calm Calm - N/A   Partly Cloudy
10:56 AM - - N/A% 30.20 in 10.0 mi Calm Calm - N/A   Partly Cloudy
11:16 AM - - N/A% 30.19 in 10.0 mi Calm Calm - N/A   Partly Cloudy
11:36 AM - - N/A% 30.19 in 7.0 mi Calm Calm - N/A   Partly Cloudy
11:56 AM - - N/A% 30.19 in 10.0 mi Calm Calm - N/A   Partly Cloudy
12:16 PM - - N/A% 30.18 in 8.0 mi Calm Calm - N/A   Partly Cloudy
12:36 PM - - N/A% 30.19 in 8.0 mi Calm Calm - N/A   Scattered Clouds
12:56 PM - - N/A% 30.17 in 10.0 mi Calm Calm - N/A   Scattered Clouds
1:16 PM - - N/A% 30.17 in 10.0 mi Calm Calm - N/A   Scattered Clouds
1:34 PM -18.4 °F - N/A% 30.15 in 8.0 mi Calm Calm - N/A   Mostly Cloudy
1:36 PM - - N/A% 30.15 in 8.0 mi Calm Calm - N/A   Mostly Cloudy
1:56 PM - - N/A% 30.14 in 10.0 mi Calm Calm - N/A   Mostly Cloudy
2:13 PM -18.4 °F - N/A% 30.13 in 10.0 mi Calm Calm - N/A   Scattered Clouds
2:16 PM - - N/A% 30.12 in 10.0 mi Calm Calm - N/A   Scattered Clouds
2:36 PM - - N/A% 30.11 in 10.0 mi Calm Calm - N/A   Scattered Clouds
2:56 PM - - N/A% 30.11 in 9.0 mi Calm Calm - N/A   Scattered Clouds
3:16 PM - - N/A% 30.11 in 8.0 mi Calm Calm - N/A   Scattered Clouds
3:36 PM - - N/A% 30.10 in 8.0 mi Calm Calm - N/A   Scattered Clouds
3:56 PM - - N/A% 30.09 in 10.0 mi Calm Calm - N/A   Scattered Clouds
4:16 PM - - N/A% 30.07 in 10.0 mi Calm Calm - N/A   Partly Cloudy
4:36 PM -23.8 °F - N/A% 30.07 in 10.0 mi Calm Calm - N/A   Partly Cloudy
4:56 PM -23.8 °F - N/A% 30.05 in 10.0 mi Calm Calm - N/A   Partly Cloudy
5:16 PM -23.8 °F - N/A% 30.04 in 10.0 mi Calm Calm - N/A   Partly Cloudy
5:36 PM -23.8 °F - N/A% 30.03 in 10.0 mi Calm Calm - N/A   Partly Cloudy
5:56 PM -25.6 °F - N/A% 30.03 in 10.0 mi Calm Calm - N/A   Partly Cloudy
6:16 PM -25.6 °F - N/A% 30.01 in 10.0 mi Calm Calm - N/A   Clear
6:36 PM -25.6 °F - N/A% 30.00 in 10.0 mi Calm Calm - N/A   Clear
6:56 PM -25.6 °F - N/A% 29.98 in 10.0 mi Calm Calm - N/A   Clear
7:16 PM -27.4 °F - N/A% 29.97 in 10.0 mi Calm Calm - N/A   Clear
7:36 PM -25.6 °F - N/A% 29.96 in 10.0 mi Calm Calm - N/A   Clear
7:56 PM -27.4 °F - N/A% 29.95 in 10.0 mi Calm Calm - N/A   Clear
8:16 PM -27.4 °F - N/A% 29.95 in 10.0 mi Calm Calm - N/A   Clear
8:36 PM -25.6 °F - N/A% 29.95 in 10.0 mi Calm Calm - N/A   Clear
8:56 PM -25.6 °F - N/A% 29.95 in 10.0 mi Calm Calm - N/A   Clear
9:16 PM -25.6 °F - N/A% 29.94 in 10.0 mi Calm Calm - N/A   Clear
9:36 PM -27.4 °F - N/A% 29.93 in 10.0 mi Calm Calm - N/A   Clear
9:56 PM -25.6 °F - N/A% 29.93 in 10.0 mi Calm Calm - N/A   Clear
10:16 PM -25.6 °F - N/A% 29.91 in 10.0 mi Calm Calm - N/A   Clear
10:36 PM -25.6 °F - N/A% 29.91 in 10.0 mi Calm Calm - N/A   Clear
10:56 PM -25.6 °F - N/A% 29.91 in 10.0 mi Calm Calm - N/A   Clear
11:16 PM -27.4 °F - N/A% 29.91 in 10.0 mi Calm Calm - N/A   Clear
11:36 PM -27.4 °F - N/A% 29.90 in 10.0 mi Calm Calm - N/A   Clear
11:56 PM -29.2 °F - N/A% 29.90 in 10.0 mi Calm Calm - N/A   Clear